Location: St. Louis
(38.6270°N, 90.1994°W)
Time: 03:00:54
(UTC-05:00)

OPS 7613 P/L 1 - Pass Details

Date: 12 July 2022
Orbit: 887 x 911 km, 70.0° (Epoch: 10 August)

Event Time Altitude Azimuth Distance (km) Brightness Sun altitude
Rises 04:24:50 0° 326° (NNW) 3,501 11.5 -13.7°
Reaches altitude 10° 04:27:31 10° 318° (NW) 2,556 10.7 -13.3°
Maximum altitude 04:32:46 35° 255° (WSW) 1,404 8.9 -12.5°
Drops below altitude 10° 04:38:00 10° 192° (SSW) 2,540 10.2 -11.8°
Enters shadow 04:39:14 - 187° (S) 2,966 10.6 -11.6°
